Santa Ana, CA

11:09 AM PDT on October 20, 2017 (GMT -0700)
John Wayne-Orange County

Weather History for KSNA - September, 2013

Change the Weather History Date:

Friday, September 6, 2013

  Actual Average Record
Temperature  
Mean Temperature 86 °F 73 °F  
Max Temperature 96 °F 80 °F 96 °F (2013)
Min Temperature 76 °F 65 °F 61 °F (2005)
Degree Days  
Heating Degree Days 0 0  
Month to date heating degree days 0 0  
Since 1 July heating degree days 0 0  
Cooling Degree Days 21 8  
Month to date cooling degree days 110 48  
Year to date cooling degree days 814 619  
Growing Degree Days 36 (Base 50)    
Moisture  
Dew Point 62 °F    
Average Humidity 46    
Maximum Humidity 64    
Minimum Humidity 28    
Precipitation  
Precipitation 0.00 in 0.00 in 0.73 in (1978)
Month to date precipitation 0.00 0.00  
Year to date precipitation 2.09 9.03  
Since 1 July precipitation 0.12  
Snow  
Snow 0.00 in - - ()
Month to date snowfall 0.0  
Year to date snowfall 0.0  
Snow Depth 0.00 in    
Sea Level Pressure  
Sea Level Pressure 29.83 in    
Wind  
Wind Speed 4 mph (SW)    
Max Wind Speed 12 mph    
Max Gust Speed 16 mph    
Visibility 10 miles    
Events      
T = Trace of Precipitation, MM = Missing Value Source: NWS Daily Summary

Daily Weather History Graph

Daily Weather History Graph

Search for Another Location

Airport or City:

Trip Planner

Search our weather history database for the weather conditions in past years. The results will help you decide how hot, cold, wet, or windy it might be!

Date:

Astronomy

Sep. 06, 2013 Rise Set
Actual Time 6:28 AM PDT 7:09 PM PDT
Civil Twilight 6:03 AM PDT 7:34 PM PDT
Nautical Twilight 5:34 AM PDT 8:04 PM PDT
Astronomical Twilight 5:03 AM PDT 8:34 PM PDT
Moon 7:39 AM PDT (9/6) 7:44 PM PDT (9/6)
Length of Visible Light 13h 31m
Length of Day
12h 40m
New Moon, 2% of the Moon is Illuminated
Sep 6
New Moon
Sep 12
First Quarter
Sep 19
Full
Sep 26
Last Quarter
Oct 4
New

Hourly Weather History & Observations

Time (PDT) Temp. Heat Index Dew Point Humidity Pressure Visibility Wind Dir Wind Speed Gust Speed Precip Events Conditions
12:53 AM 78.1 °F - 62.1 °F 58% 29.86 in 10.0 mi Calm Calm - N/A   Clear
1:53 AM 77.0 °F - 62.1 °F 60% 29.85 in 10.0 mi SSW 3.5 mph - N/A   Clear
2:53 AM 77.0 °F - 62.1 °F 60% 29.83 in 10.0 mi Calm Calm - N/A   Clear
3:53 AM 77.0 °F - 62.1 °F 60% 29.83 in 10.0 mi Calm Calm - N/A   Clear
4:53 AM 77.0 °F - 62.1 °F 60% 29.83 in 10.0 mi Calm Calm - N/A   Clear
5:53 AM 75.9 °F - 63.0 °F 64% 29.84 in 10.0 mi Calm Calm - N/A   Scattered Clouds
6:53 AM 77.0 °F - 62.1 °F 60% 29.84 in 10.0 mi Variable 3.5 mph - N/A   Scattered Clouds
7:53 AM 78.1 °F - 62.1 °F 58% 29.85 in 10.0 mi Calm Calm - N/A   Scattered Clouds
8:53 AM 82.0 °F 83.1 °F 63.0 °F 52% 29.86 in 10.0 mi Calm Calm - N/A   Scattered Clouds
9:53 AM 88.0 °F 87.9 °F 61.0 °F 40% 29.85 in 10.0 mi Calm Calm - N/A   Scattered Clouds
10:53 AM 93.9 °F 94.0 °F 61.0 °F 33% 29.86 in 10.0 mi Variable 3.5 mph - N/A   Scattered Clouds
11:53 AM 89.1 °F 89.3 °F 62.1 °F 40% 29.85 in 10.0 mi SSW 10.4 mph - N/A   Scattered Clouds
12:53 PM 93.9 °F 95.6 °F 64.0 °F 37% 29.84 in 10.0 mi SSW 10.4 mph - N/A   Mostly Cloudy
1:53 PM 93.0 °F 92.3 °F 59.0 °F 32% 29.81 in 10.0 mi West 8.1 mph - N/A   Scattered Clouds
2:53 PM 96.1 °F 95.6 °F 59.0 °F 29% 29.80 in 10.0 mi WSW 6.9 mph - N/A   Scattered Clouds
3:53 PM 95.0 °F 93.7 °F 57.0 °F 28% 29.78 in 10.0 mi SW 9.2 mph - N/A   Scattered Clouds
4:53 PM 91.9 °F 91.2 °F 59.0 °F 33% 29.78 in 10.0 mi WSW 6.9 mph - N/A   Scattered Clouds
5:53 PM 89.1 °F 88.8 °F 60.1 °F 38% 29.78 in 10.0 mi SW 8.1 mph - N/A   Scattered Clouds
6:53 PM 82.9 °F 83.3 °F 61.0 °F 47% 29.78 in 10.0 mi SSW 9.2 mph - N/A   Scattered Clouds
7:53 PM 79.0 °F - 62.1 °F 56% 29.80 in 10.0 mi SSW 10.4 mph - N/A   Partly Cloudy
8:53 PM 79.0 °F - 64.0 °F 60% 29.81 in 8.0 mi Calm Calm - N/A   Partly Cloudy
9:53 PM 79.0 °F - 64.0 °F 60% 29.82 in 8.0 mi Calm Calm - N/A   Partly Cloudy
10:53 PM 79.0 °F - 63.0 °F 58% 29.83 in 8.0 mi SSW 4.6 mph - N/A   Partly Cloudy
11:53 PM 77.0 °F - 64.9 °F 66% 29.83 in 7.0 mi SSW 5.8 mph - N/A   Clear